Change the Weather History Date:

Sunday, January 13, 2013

  Actual Average Record
Temperature  
Mean Temperature 38 °F -  
Max Temperature 42 °F 46 °F 53 °F (1998)
Min Temperature 35 °F 39 °F 33 °F (2000)
Degree Days  
Heating Degree Days 26    
Moisture  
Dew Point 37 °F    
Average Humidity 90    
Maximum Humidity 100    
Minimum Humidity 75    
Precipitation  
Precipitation 0.12 in - - ()
Sea Level Pressure  
Sea Level Pressure 30.10 in    
Wind  
Wind Speed 9 mph ()    
Max Wind Speed 18 mph    
Max Gust Speed 30 mph    
Visibility 5.1 miles    
Events Rain    
Averages and records for this station are not official NWS values.
T = Trace of Precipitation, MM = Missing Value Source: Averaged Metar Reports

Daily Weather History Graph

Daily Weather History Graph

Search for Another Location

Airport or City:

Trip Planner

Search our weather history database for the weather conditions in past years. The results will help you decide how hot, cold, wet, or windy it might be!

Date:

Astronomy

Jan. 13, 2013 Rise Set
Actual Time 8:15 AM GMT 4:44 PM GMT
Civil Twilight 7:38 AM GMT 5:21 PM GMT
Nautical Twilight 6:57 AM GMT 6:02 PM GMT
Astronomical Twilight 6:18 AM GMT 6:41 PM GMT
Moon 8:49 AM GMT (1/13) 7:25 PM GMT (1/13)
Length of Visible Light 9h 43m
Length of Day
8h 29m
Waxing Crescent, 4% of the Moon is Illuminated
Jan 13
Waxing Crescent
Jan 18
First Quarter
Jan 27
Full
Feb 3
Last Quarter
Feb 10
New

Hourly Weather History & Observations

Time (GMT) Temp. Windchill Dew Point Humidity Pressure Visibility Wind Dir Wind Speed Gust Speed Precip Events Conditions
12:50 AM 44.6 °F 36.9 °F 42.8 °F 93% 29.86 in 6.2 mi East 18.4 mph 29.9 mph N/A   Mostly Cloudy
1:50 AM 42.8 °F 35.1 °F 41.0 °F 93% 29.89 in 6.2 mi East 16.1 mph - N/A   Mostly Cloudy
2:50 AM 42 °F - 41 °F 93% 29.96 in 7 mi East 13.8 mph - -   Overcast
2:50 AM 42.8 °F 35.8 °F 41.0 °F 93% 29.92 in 6.2 mi East 13.8 mph - N/A   Overcast
3:50 AM 41.0 °F 34.3 °F 39.2 °F 93% 29.98 in 6.2 mi NE 11.5 mph - N/A   Overcast
4:50 AM 39.2 °F 32.0 °F 37.4 °F 93% 29.98 in 6.2 mi NE 11.5 mph - N/A   Mostly Cloudy
5:50 AM 38 °F - 37 °F 93% 30.04 in 6 mi NE 8.1 mph - -   Mist
5:50 AM 37.4 °F 31.4 °F 37.4 °F 100% 30.01 in 6.2 mi NE 8.1 mph - N/A   Overcast
6:50 AM 37.4 °F 30.3 °F 35.6 °F 93% 30.04 in 3.7 mi NE 10.4 mph - N/A   Overcast
7:50 AM 35.6 °F 27.1 °F 33.8 °F 93% 30.06 in 4.3 mi NNE 12.7 mph - N/A   Haze
8:50 AM 37 °F - 35 °F 87% 30.12 in 6 mi NNE 12.7 mph - -   Haze
8:50 AM 37.4 °F 29.3 °F 33.8 °F 87% 30.09 in 6.2 mi NNE 12.7 mph - N/A   Overcast
9:50 AM 37.4 °F 30.8 °F 35.6 °F 93% 30.12 in 5.0 mi NE 9.2 mph - N/A   Overcast
10:50 AM 39.2 °F 31.6 °F 37.4 °F 93% 30.15 in 5.0 mi NE 12.7 mph - N/A   Overcast
11:50 AM 40 °F - 38 °F 88% 30.17 in 5 mi NE 8.1 mph - -   Haze
11:50 AM 41.0 °F 35.8 °F 37.4 °F 87% 30.15 in 5.0 mi NE 8.1 mph - N/A   Haze
12:50 PM 41.0 °F 36.4 °F 37.4 °F 87% 30.15 in 5.0 mi NNE 6.9 mph - N/A   Haze
1:50 PM 41.0 °F 36.4 °F 35.6 °F 81% 30.15 in 5.0 mi NE 6.9 mph - N/A   Overcast
2:50 PM 41 °F - 36 °F 75% 30.18 in 5 mi NNE 5.8 mph - -   Haze
2:50 PM 41.0 °F 37.1 °F 35.6 °F 81% 30.15 in 5.0 mi NNE 5.8 mph - N/A   Overcast
3:50 PM 41.0 °F 36.4 °F 37.4 °F 87% 30.18 in 5.0 mi North 6.9 mph - N/A   Overcast
4:50 PM 39.2 °F 37.0 °F 35.6 °F 87% 30.18 in 4.3 mi North 3.5 mph - N/A   Haze
5:50 PM 38 °F - 36 °F 88% 30.21 in 4 mi NE 1.2 mph - -   Haze
5:50 PM 39.2 °F - 35.6 °F 87% 30.18 in 4.3 mi NE 1.2 mph - N/A   Haze
6:50 PM 39.2 °F - 35.6 °F 87% 30.18 in 4.3 mi ENE 1.2 mph - N/A   Haze
7:50 PM 39.2 °F 35.9 °F 35.6 °F 87% 30.18 in 3.7 mi SSE 4.6 mph - N/A Rain Light Rain
8:50 PM 39 °F - 36 °F 85% 30.18 in 4 mi SSE 4.6 mph - - Rain Light Rain
8:50 PM 39.2 °F 35.9 °F 35.6 °F 87% 30.15 in 3.7 mi SSE 4.6 mph - N/A Rain Light Rain
9:50 PM 39.2 °F 35.9 °F 37.4 °F 93% 30.15 in 3.1 mi SE 4.6 mph - N/A Rain Light Rain
10:50 PM 41.0 °F 38.0 °F 39.2 °F 93% 30.12 in 3.7 mi SSW 4.6 mph - N/A Rain Light Rain
11:50 PM 41 °F - 40 °F 94% 30.14 in 6 mi West 6.9 mph - - Rain Light Rain
11:50 PM 41.0 °F 36.4 °F 39.2 °F 93% 30.12 in 6.2 mi West 6.9 mph - N/A   Partly Cloudy